Wetterdaten: Dienstag, 03.05.2011
Datum Zeit Temp. a Sch. Temp. a Son. Temp. a Bod. Feuchte a. Luftdruck Regen Wind Richtung Richtung Sonnenschein Helligkeit Taupunkt Windchill
03.05.2011 00:02 6,4 C 7,3 C 6,3 C 72 % 1010 hPa 0,0 l/m 0,1 m/s (0 Bft) O45 100 0 min 0 lux 1,7 C 6,4 C
03.05.2011 00:07 6,4 C 7,2 C 6,5 C 72 % 1010 hPa 0,0 l/m 0,4 m/s (1 Bft) O-NO67.5 75 0 min 0 lux 1,7 C 6,4 C
03.05.2011 00:12 6,4 C 7,3 C 6,5 C 73 % 1010 hPa 0,0 l/m 0,2 m/s (0 Bft) O-NO67.5 75 0 min 0 lux 1,9 C 6,4 C
03.05.2011 00:17 6,4 C 7,3 C 6,5 C 72 % 1010 hPa 0,0 l/m 0,2 m/s (0 Bft) O-NO45 70 0 min 0 lux 1,7 C 6,4 C
03.05.2011 00:22 6,4 C 7,3 C 6,3 C 72 % 1010 hPa 0,0 l/m 0,1 m/s (0 Bft) O45 95 0 min 0 lux 1,7 C 6,4 C
03.05.2011 00:27 6,2 C 7,1 C 5,7 C 72 % 1010 hPa 0,0 l/m 0,2 m/s (0 Bft) O45 85 0 min 0 lux 1,5 C 6,2 C
03.05.2011 00:32 6,0 C 7,0 C 5,8 C 72 % 1010 hPa 0,0 l/m 0,0 m/s (0 Bft) O22.5 85 0 min 0 lux 1,3 C 6,0 C
03.05.2011 00:37 5,9 C 7,0 C 5,8 C 73 % 1010 hPa 0,0 l/m 0,0 m/s (0 Bft) O67.5 85 0 min 0 lux 1,4 C 5,9 C
03.05.2011 00:42 5,9 C 7,0 C 6,0 C 73 % 1010 hPa 0,0 l/m 0,0 m/s (0 Bft) O67.5 80 0 min 0 lux 1,4 C 5,9 C
03.05.2011 00:47 5,9 C 7,0 C 6,0 C 74 % 1010 hPa 0,0 l/m 0,0 m/s (0 Bft) O67.5 95 0 min 0 lux 1,6 C 5,9 C
03.05.2011 00:52 6,0 C 7,0 C 6,0 C 74 % 1010 hPa 0,0 l/m 0,0 m/s (0 Bft) O-NO67.5 65 0 min 0 lux 1,7 C 6,0 C
03.05.2011 00:57 6,0 C 7,0 C 6,0 C 74 % 1010 hPa 0,0 l/m 0,1 m/s (0 Bft) O45 85 0 min 0 lux 1,7 C 6,0 C
03.05.2011 01:02 6,0 C 6,9 C 5,9 C 74 % 1010 hPa 0,0 l/m 0,1 m/s (0 Bft) O67.5 85 0 min 0 lux 1,7 C 6,0 C
03.05.2011 01:07 5,9 C 6,9 C 5,6 C 74 % 1010 hPa 0,0 l/m 0,1 m/s (0 Bft) O67.5 85 0 min 0 lux 1,6 C 5,9 C
03.05.2011 01:12 5,7 C 6,8 C 5,5 C 74 % 1010 hPa 0,0 l/m 0,3 m/s (1 Bft) O22.5 85 0 min 0 lux 1,4 C 5,7 C
03.05.2011 01:17 5,6 C 6,6 C 5,7 C 74 % 1010 hPa 0,0 l/m 0,3 m/s (1 Bft) O45 85 0 min 0 lux 1,3 C 5,6 C
03.05.2011 01:22 5,6 C 6,6 C 5,5 C 74 % 1010 hPa 0,0 l/m 0,1 m/s (0 Bft) O-NO67.5 75 0 min 0 lux 1,3 C 5,6 C
03.05.2011 01:27 5,6 C 6,6 C 5,6 C 74 % 1010 hPa 0,0 l/m 0,1 m/s (0 Bft) O67.5 80 0 min 0 lux 1,3 C 5,6 C
03.05.2011 01:32 5,6 C 6,5 C 5,5 C 74 % 1010 hPa 0,0 l/m 0,1 m/s (0 Bft) O-NO45 75 0 min 0 lux 1,3 C 5,6 C
03.05.2011 01:37 5,6 C 6,5 C 5,6 C 74 % 1010 hPa 0,0 l/m 0,0 m/s (0 Bft) N-NW45 335 0 min 0 lux 1,3 C 5,6 C
03.05.2011 01:42 5,5 C 6,5 C 5,7 C 75 % 1010 hPa 0,0 l/m 0,3 m/s (0 Bft) O45 85 0 min 0 lux 1,4 C 5,5 C
03.05.2011 01:47 5,6 C 6,5 C 5,6 C 74 % 1010 hPa 0,0 l/m 0,9 m/s (1 Bft) O45 95 0 min 0 lux 1,3 C 5,6 C
03.05.2011 01:52 5,6 C 6,5 C 5,5 C 74 % 1010 hPa 0,0 l/m 0,1 m/s (0 Bft) O-NO22.5 70 0 min 0 lux 1,3 C 5,6 C
03.05.2011 01:57 5,6 C 6,5 C 5,7 C 74 % 1010 hPa 0,0 l/m 0,0 m/s (0 Bft) O-NO45 75 0 min 0 lux 1,3 C 5,6 C
03.05.2011 02:02 5,6 C 6,5 C 5,7 C 75 % 1010 hPa 0,0 l/m 0,0 m/s (0 Bft) O 90 0 min 0 lux 1,5 C 5,6 C
03.05.2011 02:07 5,6 C 6,6 C 5,7 C 75 % 1010 hPa 0,0 l/m 0,0 m/s (0 Bft) O-NO45 70 0 min 0 lux 1,5 C 5,6 C
03.05.2011 02:12 5,6 C 6,6 C 5,7 C 75 % 1010 hPa 0,0 l/m 0,1 m/s (0 Bft) O-NO45 65 0 min 0 lux 1,5 C 5,6 C
03.05.2011 02:17 5,6 C 6,6 C 5,7 C 75 % 1010 hPa 0,0 l/m 0,6 m/s (1 Bft) O-NO67.5 65 0 min 0 lux 1,5 C 5,6 C
03.05.2011 02:22 5,6 C 6,6 C 5,7 C 75 % 1010 hPa 0,0 l/m 0,0 m/s (0 Bft) NO 45 0 min 0 lux 1,5 C 5,6 C
03.05.2011 02:27 5,6 C 6,6 C 5,8 C 75 % 1010 hPa 0,0 l/m 0,0 m/s (0 Bft) O45 85 0 min 0 lux 1,5 C 5,6 C
03.05.2011 02:32 5,6 C 6,6 C 5,6 C 75 % 1010 hPa 0,0 l/m 0,1 m/s (0 Bft) O-NO45 70 0 min 0 lux 1,5 C 5,6 C
03.05.2011 02:37 5,6 C 6,6 C 5,8 C 75 % 1010 hPa 0,0 l/m 0,0 m/s (0 Bft) O 95 0 min 0 lux 1,5 C 5,6 C
03.05.2011 02:42 5,6 C 6,6 C 5,6 C 75 % 1010 hPa 0,0 l/m 0,0 m/s (0 Bft) NO45 50 0 min 0 lux 1,5 C 5,6 C
03.05.2011 02:48 5,6 C 6,6 C 5,7 C 75 % 1010 hPa 0,0 l/m 0,0 m/s (0 Bft) O45 80 0 min 0 lux 1,5 C 5,6 C
03.05.2011 02:53 5,6 C 6,6 C 5,7 C 75 % 1010 hPa 0,0 l/m 0,0 m/s (0 Bft) N-NO67.5 30 0 min 0 lux 1,5 C 5,6 C
03.05.2011 02:58 5,6 C 6,6 C 5,8 C 75 % 1010 hPa 0,0 l/m 0,0 m/s (0 Bft) O45 95 0 min 0 lux 1,5 C 5,6 C
03.05.2011 03:03 5,6 C 6,6 C 5,7 C 75 % 1010 hPa 0,0 l/m 0,0 m/s (0 Bft) O67.5 80 0 min 0 lux 1,5 C 5,6 C
03.05.2011 03:07 5,6 C 6,6 C 5,7 C 75 % 1010 hPa 0,0 l/m 0,0 m/s (0 Bft) NO 50 0 min 0 lux 1,5 C 5,6 C
03.05.2011 03:12 5,6 C 6,6 C 5,6 C 75 % 1010 hPa 0,0 l/m 0,0 m/s (0 Bft) NO67.5 55 0 min 0 lux 1,5 C 5,6 C
03.05.2011 03:17 5,6 C 6,6 C 5,7 C 75 % 1010 hPa 0,0 l/m 0,0 m/s (0 Bft) NO 50 0 min 0 lux 1,5 C 5,6 C
03.05.2011 03:22 5,6 C 6,6 C 5,6 C 75 % 1010 hPa 0,0 l/m 0,0 m/s (0 Bft) O45 90 0 min 0 lux 1,5 C 5,6 C
03.05.2011 03:27 5,5 C 6,6 C 5,6 C 75 % 1010 hPa 0,0 l/m 0,1 m/s (0 Bft) O67.5 85 0 min 0 lux 1,4 C 5,5 C
03.05.2011 03:32 5,5 C 6,6 C 5,6 C 76 % 1010 hPa 0,0 l/m 0,1 m/s (0 Bft) O-SO45 105 0 min 0 lux 1,6 C 5,5 C
03.05.2011 03:37 5,5 C 6,6 C 5,7 C 75 % 1010 hPa 0,0 l/m 0,1 m/s (0 Bft) O-SO 105 0 min 0 lux 1,4 C 5,5 C
03.05.2011 03:42 5,5 C 6,6 C 5,6 C 75 % 1010 hPa 0,0 l/m 0,0 m/s (0 Bft) O22.5 90 0 min 0 lux 1,4 C 5,5 C
03.05.2011 03:47 5,5 C 6,6 C 5,7 C 75 % 1010 hPa 0,0 l/m 0,0 m/s (0 Bft) N-NO45 20 0 min 0 lux 1,4 C 5,5 C
03.05.2011 03:52 5,5 C 6,6 C 5,6 C 75 % 1010 hPa 0,0 l/m 0,1 m/s (0 Bft) O-NO22.5 65 0 min 0 lux 1,4 C 5,5 C
03.05.2011 03:57 5,5 C 6,6 C 5,6 C 75 % 1010 hPa 0,0 l/m 0,1 m/s (0 Bft) O22.5 80 0 min 0 lux 1,4 C 5,5 C
03.05.2011 04:02 5,4 C 6,5 C 5,5 C 75 % 1010 hPa 0,0 l/m 0,1 m/s (0 Bft) O67.5 85 0 min 0 lux 1,3 C 5,4 C
03.05.2011 04:07 5,4 C 6,5 C 5,6 C 74 % 1010 hPa 0,0 l/m 0,1 m/s (0 Bft) O45 95 0 min 0 lux 1,1 C 5,4 C
03.05.2011 04:12 5,4 C 6,5 C 5,6 C 74 % 1010 hPa 0,0 l/m 0,0 m/s (0 Bft) O-NO67.5 75 0 min 0 lux 1,1 C 5,4 C
03.05.2011 04:17 5,4 C 6,5 C 5,4 C 74 % 1010 hPa 0,0 l/m 0,1 m/s (0 Bft) O67.5 80 0 min 0 lux 1,1 C 5,4 C
03.05.2011 04:22 5,4 C 6,4 C 5,5 C 74 % 1010 hPa 0,0 l/m 0,0 m/s (0 Bft) O-NO45 60 0 min 0 lux 1,1 C 5,4 C
03.05.2011 04:27 5,3 C 6,4 C 5,5 C 74 % 1010 hPa 0,0 l/m 0,1 m/s (0 Bft) O45 85 0 min 0 lux 1,0 C 5,3 C
03.05.2011 04:32 5,3 C 6,4 C 5,4 C 74 % 1010 hPa 0,0 l/m 0,1 m/s (0 Bft) O22.5 80 0 min 0 lux 1,0 C 5,3 C
03.05.2011 04:37 5,2 C 6,3 C 5,4 C 74 % 1010 hPa 0,0 l/m 0,1 m/s (0 Bft) NO45 55 0 min 0 lux 1,0 C 5,2 C
03.05.2011 04:42 5,2 C 6,2 C 5,3 C 74 % 1011 hPa 0,0 l/m 0,0 m/s (0 Bft) O-NO67.5 60 0 min 0 lux 1,0 C 5,2 C
03.05.2011 04:47 5,2 C 6,3 C 5,3 C 74 % 1011 hPa 0,0 l/m 4,1 m/s (3 Bft) O45 85 0 min 0 lux 1,0 C -0,5 C
03.05.2011 04:52 5,2 C 6,2 C 5,3 C 74 % 1011 hPa 0,0 l/m 0,0 m/s (0 Bft) O-NO45 75 0 min 0 lux 1,0 C 5,2 C
03.05.2011 04:57 5,2 C 6,2 C 5,2 C 74 % 1011 hPa 0,0 l/m 0,1 m/s (0 Bft) NO67.5 45 0 min 0 lux 1,0 C 5,2 C
03.05.2011 05:02 5,1 C 6,2 C 5,2 C 74 % 1011 hPa 0,0 l/m 0,0 m/s (0 Bft) O45 85 0 min 0 lux 0,9 C 5,1 C
03.05.2011 05:07 4,9 C 6,2 C 5,1 C 74 % 1011 hPa 0,0 l/m 0,0 m/s (0 Bft) O-NO22.5 65 0 min 0 lux 0,7 C 4,9 C
03.05.2011 05:12 4,9 C 6,1 C 5,1 C 74 % 1011 hPa 0,0 l/m 0,1 m/s (0 Bft) O67.5 100 0 min 0 lux 0,7 C 4,9 C
03.05.2011 05:17 4,8 C 6,0 C 5,0 C 74 % 1011 hPa 0,0 l/m 0,4 m/s (1 Bft) O-NO45 75 0 min 0 lux 0,6 C 4,8 C
03.05.2011 05:22 4,7 C 6,0 C 4,8 C 73 % 1011 hPa 0,0 l/m 0,1 m/s (0 Bft) O-NO45 60 0 min 0 lux 0,3 C 4,7 C
03.05.2011 05:27 4,7 C 6,0 C 4,9 C 73 % 1011 hPa 0,0 l/m 0,1 m/s (0 Bft) O-NO22.5 60 0 min 0 lux 0,3 C 4,7 C
03.05.2011 05:32 4,7 C 5,8 C 4,8 C 73 % 1011 hPa 0,0 l/m 0,0 m/s (0 Bft) O-NO22.5 65 0 min 0 lux 0,3 C 4,7 C
03.05.2011 05:37 4,6 C 5,8 C 4,6 C 73 % 1011 hPa 0,0 l/m 0,0 m/s (0 Bft) SO67.5 130 0 min 0 lux 0,2 C 4,6 C
03.05.2011 05:42 4,6 C 5,7 C 4,7 C 74 % 1011 hPa 0,0 l/m 0,0 m/s (0 Bft) O-NO22.5 75 0 min 48 lux 0,4 C 4,6 C
03.05.2011 05:47 4,6 C 5,7 C 4,6 C 74 % 1011 hPa 0,0 l/m 0,1 m/s (0 Bft) O-NO22.5 75 0 min 91 lux 0,4 C 4,6 C
03.05.2011 05:52 4,6 C 5,7 C 4,6 C 74 % 1011 hPa 0,0 l/m 0,0 m/s (0 Bft) O 85 0 min 206 lux 0,4 C 4,6 C
03.05.2011 05:57 4,6 C 5,6 C 4,4 C 74 % 1011 hPa 0,0 l/m 0,0 m/s (0 Bft) O22.5 95 0 min 317 lux 0,4 C 4,6 C
03.05.2011 06:02 4,5 C 5,6 C 4,1 C 74 % 1011 hPa 0,0 l/m 0,0 m/s (0 Bft) O22.5 95 0 min 541 lux 0,3 C 4,5 C
03.05.2011 06:07 4,1 C 5,3 C 4,1 C 74 % 1011 hPa 0,0 l/m 0,0 m/s (0 Bft) O-NO 60 0 min 794 lux -0,1 C 4,1 C
03.05.2011 06:12 3,9 C 5,2 C 3,6 C 74 % 1011 hPa 0,0 l/m 0,0 m/s (0 Bft) O-NO 60 0 min 1,10 klux -0,3 C 3,9 C
03.05.2011 06:17 3,7 C 5,1 C 3,5 C 75 % 1011 hPa 0,0 l/m 0,0 m/s (0 Bft) NO22.5 55 0 min 1,43 klux -0,3 C 3,7 C
03.05.2011 06:22 3,7 C 4,8 C 3,4 C 75 % 1011 hPa 0,0 l/m 0,0 m/s (0 Bft) O 80 0 min 1,81 klux -0,3 C 3,7 C
03.05.2011 06:27 3,5 C 4,7 C 3,5 C 77 % 1011 hPa 0,0 l/m 0,0 m/s (0 Bft) O22.5 90 0 min 2,26 klux -0,1 C 3,5 C
03.05.2011 06:32 3,4 C 4,6 C 3,4 C 77 % 1011 hPa 0,0 l/m 0,0 m/s (0 Bft) O 95 0 min 2,53 klux -0,2 C 3,4 C
03.05.2011 06:37 3,5 C 4,5 C 3,4 C 77 % 1011 hPa 0,0 l/m 0,0 m/s (0 Bft) O-SO67.5 115 0 min 2,99 klux -0,1 C 3,5 C
03.05.2011 06:42 3,4 C 4,5 C 3,4 C 78 % 1011 hPa 0,0 l/m 0,0 m/s (0 Bft) O 90 0 min 3,72 klux -0,1 C 3,4 C
03.05.2011 06:47 3,5 C 4,5 C 3,5 C 77 % 1012 hPa 0,0 l/m 0,0 m/s (0 Bft) O 90 0 min 3,61 klux -0,1 C 3,5 C
03.05.2011 06:52 3,5 C 4,6 C 3,9 C 78 % 1012 hPa 0,0 l/m 0,0 m/s (0 Bft) O-NO45 70 0 min 3,62 klux 0,0 C 3,5 C
03.05.2011 06:57 3,7 C 4,6 C 4,0 C 77 % 1012 hPa 0,0 l/m 0,1 m/s (0 Bft) NO22.5 55 0 min 3,29 klux 0,1 C 3,7 C
03.05.2011 07:02 3,8 C 4,7 C 3,9 C 77 % 1012 hPa 0,0 l/m 0,0 m/s (0 Bft) NO67.5 50 0 min 3,94 klux 0,1 C 3,8 C
03.05.2011 07:07 3,8 C 4,7 C 3,9 C 76 % 1012 hPa 0,0 l/m 0,0 m/s (0 Bft) O-NO 60 0 min 4,22 klux -0,0 C 3,8 C
03.05.2011 07:12 3,7 C 4,6 C 3,8 C 76 % 1012 hPa 0,0 l/m 0,0 m/s (0 Bft) O-NO22.5 65 0 min 5,00 klux -0,1 C 3,7 C
03.05.2011 07:17 5,4 C 4,6 C 4,1 C 74 % 1012 hPa 0,0 l/m 0,0 m/s (0 Bft) O 80 5 min 18,8 klux 1,1 C 5,4 C
03.05.2011 07:22 6,4 C 4,6 C 5,3 C 71 % 1012 hPa 0,0 l/m 0,0 m/s (0 Bft) O22.5 100 5 min 21,6 klux 1,5 C 6,4 C
03.05.2011 07:27 7,2 C 4,7 C 5,3 C 66 % 1012 hPa 0,0 l/m 0,0 m/s (0 Bft) O-SO 115 5 min 20,2 klux 1,3 C 7,2 C
03.05.2011 07:32 7,3 C 4,7 C 5,2 C 67 % 1012 hPa 0,0 l/m 0,0 m/s (0 Bft) O-SO 105 0 min 12,1 klux 1,6 C 7,3 C
03.05.2011 07:37 7,9 C 4,8 C 6,1 C 65 % 1012 hPa 0,0 l/m 0,0 m/s (0 Bft) O-SO22.5 105 5 min 28,0 klux 1,7 C 7,9 C
03.05.2011 07:42 9,1 C 5,0 C 7,0 C 64 % 1012 hPa 0,0 l/m 0,0 m/s (0 Bft) O 90 5 min 27,1 klux 2,7 C 9,1 C
03.05.2011 07:47 10,2 C 5,1 C 6,3 C 59 % 1012 hPa 0,0 l/m 0,0 m/s (0 Bft) O22.5 100 5 min 28,2 klux 2,6 C 10,2 C
03.05.2011 07:52 10,3 C 5,1 C 6,7 C 58 % 1012 hPa 0,0 l/m 0,0 m/s (0 Bft) O22.5 90 5 min 29,1 klux 2,4 C 10,3 C
03.05.2011 07:57 10,5 C 5,1 C 6,9 C 57 % 1012 hPa 0,0 l/m 0,0 m/s (0 Bft) O22.5 90 5 min 29,9 klux 2,3 C 10,5 C
03.05.2011 08:02 10,4 C 5,2 C 7,2 C 54 % 1012 hPa 0,0 l/m 0,0 m/s (0 Bft) O-SO22.5 105 5 min 32,8 klux 1,5 C 10,4 C
03.05.2011 08:07 10,5 C 5,2 C 7,7 C 56 % 1012 hPa 0,0 l/m 3,4 m/s (3 Bft) O45 90 5 min 33,8 klux 2,1 C 6,9 C
03.05.2011 08:12 10,6 C 5,3 C 7,2 C 56 % 1012 hPa 0,0 l/m 0,1 m/s (0 Bft) NO45 45 5 min 35,2 klux 2,2 C 10,6 C
03.05.2011 08:17 9,7 C 5,3 C 7,3 C 57 % 1012 hPa 0,0 l/m 0,1 m/s (0 Bft) O-NO45 70 5 min 36,5 klux 1,6 C 9,7 C
03.05.2011 08:22 8,4 C 5,3 C 8,0 C 60 % 1012 hPa 0,0 l/m 0,1 m/s (0 Bft) O22.5 85 5 min 38,1 klux 1,1 C 8,4 C
03.05.2011 08:27 8,0 C 5,4 C 8,0 C 60 % 1012 hPa 0,0 l/m 0,0 m/s (0 Bft) NO 45 5 min 39,9 klux 0,7 C 8,0 C
03.05.2011 08:32 7,4 C 5,5 C 7,5 C 62 % 1012 hPa 0,0 l/m 0,1 m/s (0 Bft) NO45 55 5 min 40,3 klux 0,6 C 7,4 C
03.05.2011 08:37 6,8 C 5,6 C 8,1 C 65 % 1012 hPa 0,0 l/m 0,1 m/s (0 Bft) O-NO45 60 5 min 42,1 klux 0,7 C 6,8 C
03.05.2011 08:42 6,8 C 5,6 C 8,2 C 66 % 1012 hPa 0,0 l/m 0,1 m/s (0 Bft) NO22.5 50 5 min 43,8 klux 0,9 C 6,8 C
03.05.2011 08:47 7,0 C 5,7 C 9,5 C 66 % 1013 hPa 0,0 l/m 0,1 m/s (0 Bft) O-NO45 70 5 min 44,1 klux 1,1 C 7,0 C
03.05.2011 08:52 7,3 C 5,8 C 9,1 C 65 % 1013 hPa 0,0 l/m 0,2 m/s (0 Bft) O-NO45 70 5 min 46,4 klux 1,2 C 7,3 C
03.05.2011 08:57 7,4 C 5,9 C 9,5 C 65 % 1013 hPa 0,0 l/m 5,3 m/s (3 Bft) O45 95 5 min 47,3 klux 1,3 C 0,3 C
03.05.2011 09:02 6,8 C 6,1 C 9,3 C 65 % 1013 hPa 0,0 l/m 6,5 m/s (4 Bft) O-SO45 110 5 min 49,5 klux 0,7 C -2,0 C
03.05.2011 09:07 7,2 C 6,2 C 9,7 C 65 % 1013 hPa 0,0 l/m 5,2 m/s (3 Bft) O-NO67.5 75 5 min 50,8 klux 1,1 C 0,2 C
03.05.2011 09:12 7,4 C 6,2 C 9,4 C 64 % 1013 hPa 0,0 l/m 4,8 m/s (3 Bft) O45 80 5 min 54,2 klux 1,0 C 0,9 C
03.05.2011 09:17 7,3 C 6,3 C 9,8 C 65 % 1013 hPa 0,0 l/m 0,9 m/s (1 Bft) O-NO67.5 65 5 min 55,4 klux 1,2 C 7,3 C
03.05.2011 09:22 7,6 C 6,5 C 9,7 C 64 % 1013 hPa 0,0 l/m 5,6 m/s (4 Bft) O-SO45 115 5 min 55,0 klux 1,2 C 0,1 C
03.05.2011 09:27 7,7 C 6,6 C 9,8 C 64 % 1013 hPa 0,0 l/m 6,1 m/s (4 Bft) O-NO67.5 75 5 min 59,0 klux 1,3 C -0,4 C
03.05.2011 09:32 7,8 C 6,7 C 9,9 C 62 % 1013 hPa 0,0 l/m 3,1 m/s (2 Bft) O-NO67.5 75 5 min 60,4 klux 1,0 C 4,4 C
03.05.2011 09:37 7,9 C 6,8 C 10,1 C 63 % 1013 hPa 0,0 l/m 4,5 m/s (3 Bft) O-NO67.5 60 5 min 59,4 klux 1,3 C 2,1 C
03.05.2011 09:42 7,7 C 6,9 C 8,4 C 62 % 1013 hPa 0,0 l/m 6,7 m/s (4 Bft) O45 90 5 min 63,6 klux 0,9 C -1,0 C
03.05.2011 09:47 7,9 C 7,1 C 10,0 C 63 % 1013 hPa 0,0 l/m 6,9 m/s (4 Bft) O-SO22.5 105 5 min 65,8 klux 1,3 C -1,0 C
03.05.2011 09:52 8,0 C 7,2 C 9,5 C 61 % 1014 hPa 0,0 l/m 4,3 m/s (3 Bft) O67.5 90 5 min 66,0 klux 0,9 C 2,4 C
03.05.2011 09:57 7,5 C 7,3 C 8,7 C 63 % 1014 hPa 0,0 l/m 6,8 m/s (4 Bft) O-SO22.5 120 5 min 54,8 klux 0,9 C -1,4 C
03.05.2011 10:02 7,6 C 7,4 C 9,2 C 63 % 1014 hPa 0,0 l/m 7,2 m/s (4 Bft) O-SO22.5 110 5 min 67,8 klux 1,0 C -1,7 C
03.05.2011 10:07 7,8 C 7,5 C 10,5 C 63 % 1014 hPa 0,0 l/m 6,1 m/s (4 Bft) O67.5 90 5 min 72,2 klux 1,2 C -0,3 C
03.05.2011 10:12 8,4 C 8,0 C 10,5 C 61 % 1014 hPa 0,0 l/m 6,1 m/s (4 Bft) O45 95 5 min 67,4 klux 1,3 C 0,6 C
03.05.2011 10:17 8,6 C 8,8 C 11,2 C 61 % 1014 hPa 0,0 l/m 6,1 m/s (4 Bft) O45 100 5 min 76,4 klux 1,5 C 0,9 C
03.05.2011 10:22 8,6 C 9,6 C 8,9 C 61 % 1014 hPa 0,0 l/m 4,7 m/s (3 Bft) O-NO67.5 60 5 min 75,7 klux 1,5 C 2,6 C
03.05.2011 10:27 8,3 C 9,6 C 9,7 C 61 % 1014 hPa 0,0 l/m 1,0 m/s (1 Bft) NO67.5 50 0 min 34,7 klux 1,2 C 8,3 C
03.05.2011 10:32 8,7 C 9,9 C 10,5 C 60 % 1014 hPa 0,0 l/m 0,1 m/s (0 Bft) O-SO45 115 5 min 91,3 klux 1,4 C 8,7 C
03.05.2011 10:37 9,1 C 10,5 C 12,7 C 61 % 1014 hPa 0,0 l/m 0,1 m/s (0 Bft) O-SO45 115 5 min 85,8 klux 2,0 C 9,1 C
03.05.2011 10:42 9,3 C 11,4 C 10,7 C 58 % 1014 hPa 0,0 l/m 1,5 m/s (1 Bft) O-NO67.5 75 0 min 38,0 klux 1,5 C 9,3 C
03.05.2011 10:47 9,0 C 11,3 C 10,3 C 58 % 1014 hPa 0,0 l/m 2,8 m/s (2 Bft) O-NO45 75 0 min 33,0 klux 1,2 C 6,4 C
03.05.2011 10:52 8,8 C 11,2 C 9,4 C 60 % 1014 hPa 0,0 l/m 0,1 m/s (0 Bft) O67.5 100 0 min 26,8 klux 1,5 C 8,8 C
03.05.2011 10:57 8,4 C 11,1 C 9,9 C 59 % 1015 hPa 0,0 l/m 0,1 m/s (0 Bft) N-NO45 20 0 min 29,5 klux 0,9 C 8,4 C
03.05.2011 11:02 8,4 C 10,9 C 12,0 C 60 % 1015 hPa 0,0 l/m 0,1 m/s (0 Bft) O22.5 95 5 min 103 klux 1,1 C 8,4 C
03.05.2011 11:07 8,9 C 11,6 C 13,3 C 60 % 1015 hPa 0,0 l/m 3,8 m/s (3 Bft) O-SO67.5 105 5 min 95,3 klux 1,6 C 4,5 C
03.05.2011 11:12 9,5 C 12,1 C 10,9 C 58 % 1015 hPa 0,0 l/m 4,4 m/s (3 Bft) NO67.5 45 0 min 27,4 klux 1,7 C 4,2 C
03.05.2011 11:17 8,8 C 12,1 C 9,4 C 57 % 1015 hPa 0,0 l/m 0,1 m/s (0 Bft) N67.5 360 0 min 23,3 klux 0,8 C 8,8 C
03.05.2011 11:22 8,7 C 11,9 C 10,5 C 59 % 1015 hPa 0,0 l/m 1,4 m/s (1 Bft) NO67.5 45 0 min 38,7 klux 1,1 C 8,7 C
03.05.2011 11:27 8,4 C 11,4 C 9,1 C 59 % 1015 hPa 0,0 l/m 5,5 m/s (3 Bft) O-SO22.5 120 0 min 50,8 klux 0,9 C 1,3 C
03.05.2011 11:32 8,4 C 11,4 C 10,1 C 60 % 1015 hPa 0,0 l/m 5,6 m/s (4 Bft) O67.5 85 0 min 24,2 klux 1,1 C 1,1 C
03.05.2011 11:37 9,0 C 11,8 C 11,7 C 59 % 1015 hPa 0,0 l/m 4,8 m/s (3 Bft) O45 90 5 min 61,7 klux 1,4 C 3,0 C
03.05.2011 11:42 9,0 C 12,7 C 12,7 C 59 % 1015 hPa 0,0 l/m 0,1 m/s (0 Bft) O67.5 90 5 min 100 klux 1,4 C 9,0 C
03.05.2011 11:47 9,3 C 12,5 C 11,8 C 57 % 1015 hPa 0,0 l/m 0,2 m/s (0 Bft) O45 95 0 min 38,1 klux 1,2 C 9,3 C
03.05.2011 11:52 9,2 C 12,5 C 11,9 C 57 % 1015 hPa 0,0 l/m 5,4 m/s (3 Bft) O67.5 100 5 min 84,2 klux 1,1 C 2,5 C
03.05.2011 11:57 9,4 C 12,7 C 11,4 C 57 % 1015 hPa 0,0 l/m 4,8 m/s (3 Bft) O45 95 0 min 37,2 klux 1,3 C 3,5 C
03.05.2011 12:02 9,6 C 12,9 C 13,3 C 55 % 1015 hPa 0,0 l/m 5,5 m/s (4 Bft) O67.5 80 5 min 104 klux 1,0 C 2,8 C
03.05.2011 12:07 9,7 C 13,0 C 11,1 C 56 % 1015 hPa 0,0 l/m 4,4 m/s (3 Bft) O-SO45 105 0 min 30,2 klux 1,4 C 4,5 C
03.05.2011 12:12 9,8 C 13,1 C 14,3 C 57 % 1015 hPa 0,0 l/m 4,1 m/s (3 Bft) O67.5 100 5 min 97,6 klux 1,7 C 5,0 C
03.05.2011 12:17 9,8 C 13,4 C 14,3 C 57 % 1015 hPa 0,0 l/m 3,9 m/s (3 Bft) O-NO67.5 70 0 min 26,5 klux 1,7 C 5,4 C
03.05.2011 12:22 9,9 C 13,4 C 11,5 C 55 % 1015 hPa 0,0 l/m 2,9 m/s (2 Bft) O-NO67.5 75 5 min 104 klux 1,3 C 7,2 C
03.05.2011 12:27 10,4 C 14,5 C 14,7 C 55 % 1015 hPa 0,0 l/m 7,0 m/s (4 Bft) O-SO45 120 5 min 107 klux 1,8 C 2,3 C
03.05.2011 12:32 10,0 C 14,8 C 13,8 C 50 % 1015 hPa 0,0 l/m 6,3 m/s (4 Bft) O-SO22.5 115 5 min 96,2 klux 0,1 C 2,5 C
03.05.2011 12:37 9,6 C 15,7 C 15,7 C 53 % 1015 hPa 0,0 l/m 5,3 m/s (3 Bft) O-SO22.5 110 5 min 93,0 klux 0,5 C 3,0 C
03.05.2011 12:42 10,0 C 16,1 C 12,2 C 51 % 1015 hPa 0,0 l/m 6,1 m/s (4 Bft) O-SO67.5 110 0 min 23,5 klux 0,3 C 2,7 C
03.05.2011 12:47 9,7 C 15,5 C 11,6 C 52 % 1015 hPa 0,0 l/m 4,5 m/s (3 Bft) O-SO45 115 0 min 29,1 klux 0,3 C 4,2 C
03.05.2011 12:52 9,6 C 15,5 C 15,0 C 52 % 1015 hPa 0,0 l/m 1,6 m/s (2 Bft) O-NO67.5 70 5 min 101 klux 0,2 C 9,6 C
03.05.2011 12:57 9,7 C 15,3 C 12,3 C 49 % 1015 hPa 0,0 l/m 4,2 m/s (3 Bft) O67.5 95 5 min 101 klux -0,5 C 4,8 C
03.05.2011 13:02 10,3 C 15,3 C 16,1 C 50 % 1015 hPa 0,0 l/m 4,1 m/s (3 Bft) O67.5 80 5 min 94,8 klux 0,3 C 5,6 C
03.05.2011 13:07 10,4 C 16,1 C 16,7 C 49 % 1015 hPa 0,0 l/m 5,4 m/s (3 Bft) O-NO67.5 75 5 min 90,7 klux 0,2 C 4,0 C
03.05.2011 13:12 11,0 C 17,2 C 17,7 C 47 % 1015 hPa 0,0 l/m 4,9 m/s (3 Bft) O-SO45 120 5 min 93,3 klux 0,1 C 5,3 C
03.05.2011 13:17 11,2 C 18,2 C 17,8 C 43 % 1015 hPa 0,0 l/m 0,3 m/s (1 Bft) O67.5 85 5 min 100 klux -0,9 C 11,2 C
03.05.2011 13:22 11,0 C 18,5 C 14,1 C 43 % 1015 hPa 0,0 l/m 7,5 m/s (4 Bft) O-SO45 105 5 min 97,0 klux -1,1 C 2,7 C
03.05.2011 13:27 10,8 C 18,2 C 14,7 C 46 % 1015 hPa 0,0 l/m 6,8 m/s (4 Bft) O-SO45 105 5 min 101 klux -0,3 C 3,0 C
03.05.2011 13:32 11,6 C 18,2 C 15,8 C 42 % 1015 hPa 0,0 l/m 1,0 m/s (1 Bft) O67.5 90 5 min 98,9 klux -0,9 C 11,6 C
03.05.2011 13:37 11,6 C 19,3 C 14,7 C 42 % 1015 hPa 0,0 l/m 7,2 m/s (4 Bft) SO67.5 125 5 min 96,2 klux -0,9 C 3,8 C
03.05.2011 13:42 11,7 C 19,7 C 14,7 C 39 % 1015 hPa 0,0 l/m 6,1 m/s (4 Bft) O-SO45 115 5 min 98,0 klux -1,8 C 4,9 C
03.05.2011 13:47 12,0 C 20,2 C 15,3 C 43 % 1015 hPa 0,0 l/m 3,5 m/s (3 Bft) O-SO22.5 120 5 min 104 klux -0,2 C 8,5 C
03.05.2011 13:52 12,0 C 20,9 C 14,8 C 42 % 1015 hPa 0,0 l/m 7,7 m/s (4 Bft) SO45 135 5 min 104 klux -0,5 C 3,9 C
03.05.2011 13:57 12,0 C 21,2 C 13,5 C 40 % 1015 hPa 0,0 l/m 3,9 m/s (3 Bft) O67.5 80 5 min 102 klux -1,2 C 8,0 C
03.05.2011 14:02 11,4 C 20,4 C 12,9 C 40 % 1015 hPa 0,0 l/m 0,4 m/s (1 Bft) O-NO45 60 5 min 107 klux -1,7 C 11,4 C
03.05.2011 14:07 11,5 C 20,3 C 12,6 C 40 % 1015 hPa 0,0 l/m 0,1 m/s (0 Bft) N22.5 360 5 min 106 klux -1,6 C 11,5 C
03.05.2011 14:12 11,7 C 20,4 C 14,3 C 41 % 1015 hPa 0,0 l/m 2,3 m/s (2 Bft) NW 325 5 min 103 klux -1,1 C 10,5 C
03.05.2011 14:17 11,9 C 19,7 C 13,2 C 42 % 1015 hPa 0,0 l/m 2,9 m/s (2 Bft) N67.5 350 5 min 102 klux -0,6 C 9,4 C
03.05.2011 14:22 12,3 C 20,1 C 14,3 C 40 % 1015 hPa 0,0 l/m 2,9 m/s (2 Bft) N67.5 350 5 min 104 klux -0,9 C 9,8 C
03.05.2011 14:27 12,1 C 19,4 C 13,1 C 40 % 1015 hPa 0,0 l/m 0,8 m/s (1 Bft) W-NW 300 0 min 27,2 klux -1,1 C 12,1 C
03.05.2011 14:32 11,4 C 18,2 C 12,3 C 40 % 1015 hPa 0,0 l/m 2,3 m/s (2 Bft) N22.5 5 0 min 34,3 klux -1,7 C 10,3 C
03.05.2011 14:37 11,3 C 17,8 C 12,1 C 42 % 1015 hPa 0,0 l/m 0,0 m/s (0 Bft) O-NO22.5 60 0 min 37,6 klux -1,1 C 11,3 C
03.05.2011 14:42 11,4 C 17,6 C 12,6 C 42 % 1015 hPa 0,0 l/m 0,0 m/s (0 Bft) NO 45 0 min 31,2 klux -1,0 C 11,4 C
03.05.2011 14:47 11,8 C 18,3 C 14,5 C 43 % 1015 hPa 0,0 l/m 0,9 m/s (1 Bft) O-NO67.5 70 5 min 103 klux -0,4 C 11,8 C
03.05.2011 14:52 12,4 C 19,2 C 14,5 C 37 % 1015 hPa 0,0 l/m 1,4 m/s (1 Bft) O45 95 5 min 104 klux -1,9 C 12,4 C
03.05.2011 14:57 12,3 C 19,6 C 14,1 C 37 % 1015 hPa 0,0 l/m 0,1 m/s (0 Bft) O-SO45 105 5 min 99 klux -2,0 C 12,3 C
03.05.2011 15:02 12,7 C 20,7 C 14,5 C 40 % 1015 hPa 0,0 l/m 0,1 m/s (0 Bft) O-SO67.5 105 5 min 100 klux -0,5 C 12,7 C
03.05.2011 15:07 13,2 C 20,8 C 13,8 C 38 % 1015 hPa 0,0 l/m 0,1 m/s (0 Bft) N67.5 355 5 min 103 klux -0,8 C 13,2 C
03.05.2011 15:12 13,3 C 21,1 C 14,2 C 38 % 1015 hPa 0,0 l/m 0,2 m/s (0 Bft) NW22.5 320 5 min 72,0 klux -0,7 C 13,3 C
03.05.2011 15:17 13,2 C 20,2 C 13,9 C 39 % 1015 hPa 0,0 l/m 0,0 m/s (0 Bft) N-NW67.5 340 5 min 86,4 klux -0,4 C 13,2 C
03.05.2011 15:22 12,2 C 19,3 C 11,4 C 38 % 1015 hPa 0,0 l/m 0,1 m/s (0 Bft) O-NO45 70 0 min 19,5 klux -1,7 C 12,2 C
03.05.2011 15:27 11,7 C 18,9 C 11,4 C 38 % 1015 hPa 0,0 l/m 3,2 m/s (2 Bft) SO67.5 130 5 min 87,6 klux -2,1 C 8,8 C
03.05.2011 15:32 12,1 C 20,5 C 13,4 C 35 % 1015 hPa 0,0 l/m 3,0 m/s (2 Bft) O-SO45 120 5 min 88,2 klux -2,9 C 9,5 C
03.05.2011 15:37 13,2 C 21,4 C 13,4 C 37 % 1015 hPa 0,0 l/m 1,0 m/s (1 Bft) O 90 5 min 96,8 klux -1,2 C 13,2 C
03.05.2011 15:42 13,6 C 22,1 C 13,5 C 33 % 1015 hPa 0,0 l/m 0,2 m/s (0 Bft) O-NO67.5 75 5 min 100 klux -2,4 C 13,6 C
03.05.2011 15:48 12,6 C 21,2 C 12,3 C 33 % 1015 hPa 0,0 l/m 0,1 m/s (0 Bft) O-NO67.5 75 0 min 28,1 klux -3,2 C 12,6 C
03.05.2011 15:53 11,9 C 19,8 C 12,2 C 38 % 1015 hPa 0,0 l/m 0,4 m/s (1 Bft) O-SO 105 0 min 27,8 klux -2,0 C 11,9 C
03.05.2011 15:58 12,5 C 20,4 C 13,0 C 38 % 1015 hPa 0,0 l/m 0,0 m/s (0 Bft) O22.5 95 5 min 87,6 klux -1,4 C 12,5 C
03.05.2011 16:03 13,4 C 21,5 C 14,6 C 38 % 1015 hPa 0,0 l/m 0,1 m/s (0 Bft) O-NO22.5 60 5 min 89,8 klux -0,6 C 13,4 C
03.05.2011 16:08 13,9 C 22,2 C 15,5 C 38 % 1015 hPa 0,0 l/m 0,1 m/s (0 Bft) W-NW45 295 5 min 88,2 klux -0,2 C 13,9 C
03.05.2011 16:13 12,7 C 21,5 C 12,7 C 37 % 1015 hPa 0,0 l/m 0,1 m/s (0 Bft) O-SO22.5 110 5 min 81,5 klux -1,6 C 12,7 C
03.05.2011 16:17 12,4 C 21,9 C 12,7 C 39 % 1015 hPa 0,0 l/m 4,6 m/s (3 Bft) O-SO45 110 4 min 80,0 klux -1,2 C 7,5 C
03.05.2011 16:22 11,8 C 21,6 C 11,8 C 38 % 1015 hPa 0,0 l/m 5,2 m/s (3 Bft) O22.5 100 0 min 19,2 klux -2,0 C 6,0 C
03.05.2011 16:27 11,5 C 20,9 C 12,1 C 39 % 1015 hPa 0,0 l/m 2,3 m/s (2 Bft) O-SO22.5 105 0 min 22,2 klux -2,0 C 10,3 C
03.05.2011 16:32 11,9 C 21,7 C 12,2 C 40 % 1015 hPa 0,0 l/m 2,2 m/s (2 Bft) SO45 140 5 min 72,9 klux -1,3 C 11,0 C
03.05.2011 16:37 12,8 C 21,7 C 12,7 C 37 % 1015 hPa 0,0 l/m 2,2 m/s (2 Bft) SO45 140 5 min 71,9 klux -1,5 C 11,9 C
03.05.2011 16:42 13,6 C 22,8 C 12,9 C 36 % 1015 hPa 0,0 l/m 2,4 m/s (2 Bft) S45 175 5 min 73,4 klux -1,2 C 12,3 C
03.05.2011 16:47 14,0 C 23,7 C 14,2 C 33 % 1015 hPa 0,0 l/m 0,1 m/s (0 Bft) N67.5 360 5 min 76,6 klux -2,0 C 14,0 C
03.05.2011 16:52 14,3 C 24,1 C 15,4 C 34 % 1015 hPa 0,0 l/m 2,5 m/s (2 Bft) W45 275 5 min 77,7 klux -1,3 C 12,9 C
03.05.2011 16:57 14,2 C 24,1 C 14,5 C 34 % 1015 hPa 0,0 l/m 5,7 m/s (4 Bft) SW 225 5 min 75,9 klux -1,4 C 8,6 C
03.05.2011 17:02 13,3 C 23,4 C 12,5 C 34 % 1015 hPa 0,0 l/m 0,6 m/s (1 Bft) SW 215 0 min 20,7 klux -2,2 C 13,3 C
03.05.2011 17:07 12,8 C 22,6 C 11,6 C 35 % 1015 hPa 0,0 l/m 0,0 m/s (0 Bft) O45 85 0 min 15,1 klux -2,3 C 12,8 C
03.05.2011 17:12 11,8 C 20,9 C 11,6 C 36 % 1015 hPa 0,0 l/m 0,1 m/s (0 Bft) O45 95 5 min 61,5 klux -2,8 C 11,8 C
03.05.2011 17:17 12,2 C 21,4 C 13,6 C 37 % 1015 hPa 0,0 l/m 0,2 m/s (0 Bft) O-SO45 115 5 min 61,1 klux -2,0 C 12,2 C
03.05.2011 17:22 13,0 C 22,5 C 19,8 C 37 % 1015 hPa 0,0 l/m 0,5 m/s (1 Bft) O-NO45 70 5 min 61,7 klux -1,3 C 13,0 C
03.05.2011 17:27 13,6 C 23,0 C 20,9 C 36 % 1015 hPa 0,0 l/m 0,0 m/s (0 Bft) N-NW 340 5 min 63,7 klux -1,2 C 13,6 C
03.05.2011 17:32 13,8 C 23,9 C 17,6 C 33 % 1015 hPa 0,0 l/m 0,1 m/s (0 Bft) O 90 5 min 64,0 klux -2,2 C 13,8 C
03.05.2011 17:37 14,0 C 24,3 C 18,2 C 33 % 1015 hPa 0,0 l/m 0,1 m/s (0 Bft) O22.5 95 5 min 63,7 klux -2,0 C 14,0 C
03.05.2011 17:42 14,0 C 25,0 C 18,2 C 34 % 1015 hPa 0,0 l/m 0,4 m/s (1 Bft) O-NO67.5 65 5 min 58,9 klux -1,6 C 14,0 C
03.05.2011 17:47 13,7 C 25,2 C 17,2 C 32 % 1015 hPa 0,0 l/m 0,0 m/s (0 Bft) O45 85 5 min 53,3 klux -2,7 C 13,7 C
03.05.2011 17:52 12,4 C 24,0 C 12,8 C 35 % 1015 hPa 0,0 l/m 0,1 m/s (0 Bft) O22.5 100 0 min 16,6 klux -2,6 C 12,4 C
03.05.2011 17:57 11,7 C 22,0 C 14,9 C 38 % 1015 hPa 0,0 l/m 0,0 m/s (0 Bft) O-SO22.5 105 5 min 42,1 klux -2,1 C 11,7 C
03.05.2011 18:02 11,9 C 22,3 C 15,4 C 38 % 1015 hPa 0,0 l/m 0,0 m/s (0 Bft) O-SO22.5 105 5 min 48,9 klux -2,0 C 11,9 C
03.05.2011 18:07 12,4 C 23,1 C 15,4 C 37 % 1015 hPa 0,0 l/m 0,1 m/s (0 Bft) O 100 5 min 47,5 klux -1,9 C 12,4 C
03.05.2011 18:12 12,3 C 23,4 C 14,1 C 37 % 1015 hPa 0,0 l/m 0,1 m/s (0 Bft) O45 95 5 min 46,8 klux -2,0 C 12,3 C
03.05.2011 18:17 12,4 C 23,7 C 15,1 C 35 % 1015 hPa 0,0 l/m 2,9 m/s (2 Bft) O-SO22.5 115 5 min 46,2 klux -2,6 C 10,0 C
03.05.2011 18:22 12,2 C 23,6 C 14,2 C 33 % 1015 hPa 0,0 l/m 0,0 m/s (0 Bft) O-SO22.5 105 5 min 44,8 klux -3,6 C 12,2 C
03.05.2011 18:27 12,3 C 23,7 C 14,6 C 34 % 1015 hPa 0,0 l/m 0,0 m/s (0 Bft) SO22.5 125 5 min 42,0 klux -3,1 C 12,3 C
03.05.2011 18:33 12,3 C 23,7 C 15,4 C 32 % 1015 hPa 0,0 l/m 0,1 m/s (0 Bft) SO45 125 6 min 40,4 klux -3,9 C 12,3 C
03.05.2011 18:37 12,5 C 23,8 C 13,5 C 34 % 1015 hPa 0,0 l/m 2,9 m/s (2 Bft) O-SO22.5 115 4 min 39,4 klux -2,9 C 10,2 C
03.05.2011 18:42 12,7 C 23,4 C 14,5 C 34 % 1015 hPa 0,0 l/m 2,8 m/s (2 Bft) O-SO22.5 115 5 min 37,8 klux -2,7 C 10,6 C
03.05.2011 18:47 13,0 C 23,0 C 13,1 C 34 % 1015 hPa 0,0 l/m 0,1 m/s (0 Bft) O-SO45 105 5 min 36,2 klux -2,5 C 13,0 C
03.05.2011 18:52 15,0 C 23,1 C 12,1 C 30 % 1015 hPa 0,0 l/m 2,9 m/s (2 Bft) S45 170 5 min 35,5 klux -2,4 C 12,9 C
03.05.2011 18:57 15,3 C 22,5 C 12,1 C 30 % 1015 hPa 0,0 l/m 4,1 m/s (3 Bft) SO67.5 135 5 min 34,3 klux -2,2 C 11,7 C
03.05.2011 19:02 15,9 C 22,3 C 12,0 C 28 % 1015 hPa 0,0 l/m 3,5 m/s (3 Bft) S-SO45 155 5 min 32,4 klux -2,6 C 13,1 C
03.05.2011 19:07 16,1 C 21,8 C 12,0 C 30 % 1015 hPa 0,0 l/m 3,3 m/s (2 Bft) O-SO22.5 105 5 min 31,0 klux -1,5 C 13,6 C
03.05.2011 19:12 14,8 C 21,1 C 11,3 C 28 % 1015 hPa 0,0 l/m 3,6 m/s (3 Bft) O-SO45 115 5 min 28,2 klux -3,5 C 11,6 C
03.05.2011 19:17 14,6 C 20,9 C 11,4 C 28 % 1015 hPa 0,0 l/m 2,7 m/s (2 Bft) O-SO45 120 5 min 26,5 klux -3,7 C 12,9 C
03.05.2011 19:23 14,8 C 20,7 C 11,2 C 28 % 1015 hPa 0,0 l/m 3,3 m/s (2 Bft) SO22.5 125 6 min 23,2 klux -3,5 C 12,1 C
03.05.2011 19:27 14,6 C 20,4 C 10,7 C 29 % 1016 hPa 0,0 l/m 2,6 m/s (2 Bft) SO67.5 125 4 min 21,8 klux -3,2 C 13,0 C
03.05.2011 19:32 14,5 C 20,0 C 11,1 C 29 % 1016 hPa 0,0 l/m 1,5 m/s (1 Bft) O22.5 85 5 min 19,4 klux -3,3 C 14,5 C
03.05.2011 19:37 13,7 C 19,0 C 10,3 C 31 % 1016 hPa 0,0 l/m 0,0 m/s (0 Bft) O-SO 110 0 min 12,6 klux -3,1 C 13,7 C
03.05.2011 19:42 12,7 C 19,0 C 10,4 C 33 % 1016 hPa 0,0 l/m 0,1 m/s (0 Bft) O-SO45 115 0 min 6,86 klux -3,1 C 12,7 C
03.05.2011 19:47 11,3 C 16,9 C 10,0 C 36 % 1016 hPa 0,0 l/m 0,1 m/s (0 Bft) O22.5 95 0 min 6,76 klux -3,2 C 11,3 C
03.05.2011 19:52 10,9 C 15,8 C 9,9 C 37 % 1016 hPa 0,0 l/m 0,0 m/s (0 Bft) O 85 0 min 5,66 klux -3,2 C 10,9 C
03.05.2011 19:57 10,3 C 14,7 C 9,4 C 39 % 1016 hPa 0,0 l/m 0,1 m/s (0 Bft) O22.5 85 0 min 5,66 klux -3,0 C 10,3 C
03.05.2011 20:02 10,0 C 14,3 C 9,1 C 41 % 1016 hPa 0,0 l/m 0,1 m/s (0 Bft) O22.5 95 0 min 4,90 klux -2,6 C 10,0 C
03.05.2011 20:07 9,4 C 13,5 C 9,1 C 42 % 1016 hPa 0,0 l/m 0,0 m/s (0 Bft) O22.5 85 0 min 4,33 klux -2,8 C 9,4 C
03.05.2011 20:13 9,2 C 12,9 C 8,2 C 42 % 1016 hPa 0,0 l/m 0,0 m/s (0 Bft) NO22.5 45 0 min 3,71 klux -3,0 C 9,2 C
03.05.2011 20:17 8,9 C 12,6 C 8,1 C 44 % 1016 hPa 0,0 l/m 0,0 m/s (0 Bft) O-NO 60 0 min 2,97 klux -2,7 C 8,9 C
03.05.2011 20:22 8,5 C 12,0 C 7,8 C 45 % 1016 hPa 0,0 l/m 0,0 m/s (0 Bft) O 85 0 min 2,52 klux -2,7 C 8,5 C
03.05.2011 20:28 8,4 C 11,5 C 7,7 C 46 % 1016 hPa 0,0 l/m 0,0 m/s (0 Bft) O 85 0 min 2,08 klux -2,5 C 8,4 C
03.05.2011 20:33 7,9 C 11,2 C 7,2 C 48 % 1016 hPa 0,0 l/m 0,0 m/s (0 Bft) O 85 0 min 1,68 klux -2,4 C 7,9 C
03.05.2011 20:38 7,5 C 10,7 C 7,1 C 48 % 1016 hPa 0,0 l/m 0,0 m/s (0 Bft) O 85 0 min 1,32 klux -2,8 C 7,5 C
03.05.2011 20:43 7,5 C 10,3 C 7,1 C 48 % 1016 hPa 0,0 l/m 0,0 m/s (0 Bft) O 85 0 min 996 lux -2,8 C 7,5 C
03.05.2011 20:48 6,9 C 9,8 C 7,1 C 53 % 1016 hPa 0,0 l/m 0,0 m/s (0 Bft) O 85 0 min 707 lux -2,0 C 6,9 C
03.05.2011 20:52 6,5 C 9,6 C 6,6 C 55 % 1016 hPa 0,0 l/m 0,0 m/s (0 Bft) O 85 0 min 584 lux -1,9 C 6,5 C
03.05.2011 20:57 6,2 C 9,3 C 6,1 C 57 % 1016 hPa 0,0 l/m 0,0 m/s (0 Bft) O 85 0 min 385 lux -1,7 C 6,2 C
03.05.2011 21:02 6,0 C 8,9 C 5,7 C 55 % 1016 hPa 0,0 l/m 0,0 m/s (0 Bft) O 85 0 min 233 lux -2,3 C 6,0 C
03.05.2011 21:07 5,7 C 8,8 C 5,8 C 54 % 1016 hPa 0,0 l/m 0,0 m/s (0 Bft) O 85 0 min 128 lux -2,9 C 5,7 C
03.05.2011 21:12 5,6 C 8,5 C 5,8 C 54 % 1016 hPa 0,0 l/m 0,0 m/s (0 Bft) O 85 0 min 65 lux -3,0 C 5,6 C
03.05.2011 21:17 5,6 C 8,2 C 5,6 C 56 % 1016 hPa 0,0 l/m 0,0 m/s (0 Bft) O 85 0 min 33 lux -2,5 C 5,6 C
03.05.2011 21:22 5,4 C 8,0 C 5,1 C 56 % 1017 hPa 0,0 l/m 0,0 m/s (0 Bft) O 85 0 min 17 lux -2,7 C 5,4 C
03.05.2011 21:27 5,2 C 7,8 C 4,7 C 56 % 1017 hPa 0,0 l/m 0,0 m/s (0 Bft) O 85 0 min 6 lux -2,8 C 5,2 C
03.05.2011 21:32 4,9 C 7,6 C 4,4 C 56 % 1017 hPa 0,0 l/m 0,0 m/s (0 Bft) O 85 0 min 3 lux -3,1 C 4,9 C
03.05.2011 21:37 4,7 C 7,3 C 5,1 C 59 % 1017 hPa 0,0 l/m 0,0 m/s (0 Bft) O 85 0 min 0 lux -2,6 C 4,7 C
03.05.2011 21:42 4,5 C 7,2 C 5,1 C 60 % 1017 hPa 0,0 l/m 0,0 m/s (0 Bft) O 80 0 min 0 lux -2,6 C 4,5 C
03.05.2011 21:47 4,5 C 6,9 C 4,4 C 59 % 1017 hPa 0,0 l/m 0,0 m/s (0 Bft) O 85 0 min 0 lux -2,8 C 4,5 C
03.05.2011 21:52 4,4 C 6,7 C 4,2 C 59 % 1017 hPa 0,0 l/m 0,0 m/s (0 Bft) O 85 0 min 0 lux -2,9 C 4,4 C
03.05.2011 21:57 4,2 C 6,6 C 4,4 C 59 % 1017 hPa 0,0 l/m 0,0 m/s (0 Bft) O 85 0 min 0 lux -3,1 C 4,2 C
03.05.2011 22:02 4,1 C 6,4 C 4,8 C 60 % 1017 hPa 0,0 l/m 0,0 m/s (0 Bft) O 85 0 min 0 lux -3,0 C 4,1 C
03.05.2011 22:07 4,1 C 6,3 C 4,0 C 62 % 1017 hPa 0,0 l/m 0,0 m/s (0 Bft) O 85 0 min 0 lux -2,5 C 4,1 C
03.05.2011 22:12 3,9 C 6,1 C 3,8 C 61 % 1017 hPa 0,0 l/m 0,0 m/s (0 Bft) O 85 0 min 0 lux -2,9 C 3,9 C
03.05.2011 22:17 3,7 C 6,0 C 3,2 C 61 % 1017 hPa 0,0 l/m 0,0 m/s (0 Bft) O 85 0 min 0 lux -3,1 C 3,7 C
03.05.2011 22:22 3,5 C 5,8 C 3,4 C 61 % 1017 hPa 0,0 l/m 0,0 m/s (0 Bft) O 85 0 min 0 lux -3,3 C 3,5 C
03.05.2011 22:27 3,4 C 5,6 C 3,4 C 61 % 1017 hPa 0,0 l/m 0,0 m/s (0 Bft) O 85 0 min 0 lux -3,4 C 3,4 C
03.05.2011 22:32 3,3 C 5,5 C 3,1 C 62 % 1017 hPa 0,0 l/m 0,0 m/s (0 Bft) O 85 0 min 0 lux -3,3 C 3,3 C
03.05.2011 22:37 3,2 C 5,3 C 3,0 C 62 % 1017 hPa 0,0 l/m 0,0 m/s (0 Bft) O 85 0 min 0 lux -3,4 C 3,2 C
03.05.2011 22:42 3,1 C 5,2 C 2,8 C 63 % 1017 hPa 0,0 l/m 0,0 m/s (0 Bft) O 85 0 min 0 lux -3,2 C 3,1 C
03.05.2011 22:47 3,0 C 5,2 C 2,8 C 63 % 1017 hPa 0,0 l/m 0,0 m/s (0 Bft) O 85 0 min 0 lux -3,3 C 3,0 C
03.05.2011 22:52 2,9 C 5,0 C 2,5 C 63 % 1017 hPa 0,0 l/m 0,0 m/s (0 Bft) O 85 0 min 0 lux -3,4 C 2,9 C
03.05.2011 22:57 2,7 C 4,8 C 2,7 C 64 % 1017 hPa 0,0 l/m 0,0 m/s (0 Bft) O 85 0 min 0 lux -3,4 C 2,7 C
03.05.2011 23:02 2,6 C 4,6 C 2,3 C 64 % 1017 hPa 0,0 l/m 0,0 m/s (0 Bft) O 85 0 min 0 lux -3,5 C 2,6 C
03.05.2011 23:07 2,4 C 4,6 C 2,2 C 64 % 1017 hPa 0,0 l/m 0,0 m/s (0 Bft) O 85 0 min 0 lux -3,7 C 2,4 C
03.05.2011 23:12 2,3 C 4,4 C 2,7 C 64 % 1017 hPa 0,0 l/m 0,0 m/s (0 Bft) O 85 0 min 0 lux -3,8 C 2,3 C
03.05.2011 23:17 2,3 C 4,3 C 2,5 C 65 % 1017 hPa 0,0 l/m 0,0 m/s (0 Bft) O 85 0 min 0 lux -3,6 C 2,3 C
03.05.2011 23:22 2,1 C 4,3 C 1,9 C 66 % 1017 hPa 0,0 l/m 0,0 m/s (0 Bft) O 85 0 min 0 lux -3,6 C 2,1 C
03.05.2011 23:27 2,1 C 4,0 C 2,1 C 66 % 1017 hPa 0,0 l/m 0,0 m/s (0 Bft) O 85 0 min 0 lux -3,6 C 2,1 C
03.05.2011 23:32 1,9 C 3,9 C 1,6 C 67 % 1017 hPa 0,0 l/m 0,0 m/s (0 Bft) O 85 0 min 0 lux -3,6 C 1,9 C
03.05.2011 23:37 1,9 C 3,7 C 1,3 C 68 % 1017 hPa 0,0 l/m 0,0 m/s (0 Bft) O 85 0 min 0 lux -3,4 C 1,9 C
03.05.2011 23:42 1,8 C 3,7 C 1,9 C 68 % 1017 hPa 0,0 l/m 0,0 m/s (0 Bft) O 85 0 min 0 lux -3,5 C 1,8 C
03.05.2011 23:47 1,7 C 3,6 C 1,4 C 69 % 1017 hPa 0,0 l/m 0,0 m/s (0 Bft) O 90 0 min 0 lux -3,4 C 1,7 C
03.05.2011 23:52 1,6 C 3,4 C 0,9 C 69 % 1017 hPa 0,0 l/m 0,0 m/s (0 Bft) O 90 0 min 0 lux -3,5 C 1,6 C
03.05.2011 23:57 1,4 C 3,3 C 0,9 C 69 % 1017 hPa 0,0 l/m 0,0 m/s (0 Bft) O 90 0 min 0 lux -3,7 C 1,4 C
_ Min-Zeit 23:57 23:57 23:52 19:02 00:02 - 00:32 - - - - 18:33 09:02
Minimum _ 1,4 C 3,3 C 0,9 C 28 % 1010 hPa - 0,0 m/s (0 Bft) - - - - -3,9 C -2,0 C
_ Max-Zeit 19:07 17:47 17:27 06:42 21:22 00:02 13:52 - - 18:33 12:27 07:42 19:32
Maximum _ 16,1 C 25,2 C 20,9 C 78 % 1017 hPa 0,0 l/m 7,7 m/s
SO (4 Bft)
- - 6 min 107 klux 2,7 C 14,5 C
Durchschnitt _ 8,1 C 11,4 C 8,7 C 57 % 1013 hPa #0,0 l/m 1,2 m/s (1 Bft) O-SO - #9:54 h 31,0 klux -0,4 C 6,8 C